Regional Weather Roundup
Issued by NWS

Home | Current Version | Previous Version | Graphics & Text | Print | Product List | Glossary Off
Versions: 1 2 3 4 5 6 7 8 9 10 11 12 13 14 15 16 17 18 19 20 21 22 23 24 25 26 27 28 29 30 31 32 33 34 35 36 37 38 39 40 41 42 43 44 45 46 47 48 49 50

000
ASUS43 KMKX 261121
RWRWI

WISCONSIN REGIONAL WEATHER ROUNDUP
NATIONAL WEATHER SERVICE MILWAUKEE/SULLIVAN WI
600 AM CDT FRI AUG 26 2016

NOTE: "FAIR" INDICATES FEW OR NO CLOUDS BELOW 12,000 FEET WITH NO
SIGNIFICANT WEATHER AND/OR OBSTRUCTIONS TO VISIBILITY.

WIZ001-002-006>008-014>016-023>028-261200-
NORTHWEST WISCONSIN

CITY           SKY/WX    TMP DP  RH WIND       PRES   REMARKS
SUPERIOR ARPT  CLOUDY    52  51  97 SW3       30.12R
ASHLAND        MOCLDY    55  53  93 SW7       30.11R
HAYWARD        CLOUDY    49  48  97 CALM      30.13S FOG
SIREN          FAIR      52  51  97 CALM      30.14S
CUMBERLAND     FAIR      52  50  93 CALM      30.14S
RICE LAKE        N/A     51  50  96 CALM      30.16R FOG
CHETEK         NOT AVBL
LADYSMITH      FAIR      53  52  95 CALM      30.15S
EAU CLAIRE     FAIR      54  53  97 W3        30.14R
MENOMONIE      FAIR      56  54  94 W3        30.15R
NEW RICHMOND   FAIR      53  53 100 CALM      30.15S FOG
OSCEOLA        FAIR      50  50 100 CALM      30.18R
$$

WIZ003>005-009-010-017-018-261200-
NORTH CENTRAL WISCONSIN

CITY           SKY/WX    TMP DP  RH WIND       PRES   REMARKS
MANITOWISH WTR NOT AVBL
ARBOR VITAE    FAIR      53  52  95 CALM      30.11R
WOODRUFF       FAIR      53  52  95 CALM      30.11R
RHINELANDER    FAIR      51  51 100 W7        30.12R
EAGLE RIVER    FOG       48  48 100 CALM      30.10S VSB 1/2
LAND O LAKES   CLOUDY    54  54  99 W6        30.11S
PHILLIPS       FAIR      52  52 100 CALM      30.12S
TOMAHAWK       FOG       47  46  97 CALM      30.13S VSB 3/4
MEDFORD        FAIR      50  50 100 CALM      30.13R
MERRILL        FAIR      50  50 100 CALM      30.13R
$$

WIZ029-030-035-036-043>047-261200-
CENTRAL WISCONSIN

CITY           SKY/WX    TMP DP  RH WIND       PRES   REMARKS
WAUSAU         FAIR      55  53  93 NW6       30.11R
MOSINEE        CLEAR     54  54 100 W6        30.14R
MARSHFIELD     FAIR      53  50  89 W3        30.13R
STEVENS POINT  FAIR      54  53  96 W3        30.14R
WAUPACA        FAIR      55  55  97 CALM      30.14R
WAUTOMA        FAIR      53  52  96 CALM      30.15R
WISC RAPIDS    FAIR      54  54 100 CALM      30.15R
CAMP DOUGLAS   PTCLDY    50  50 100 W2        30.15R
$$

WIZ011>013-019>022-031-037>040-048>050-261200-
NORTHEAST WISCONSIN

CITY           SKY/WX    TMP DP  RH WIND       PRES   REMARKS
ANTIGO         FAIR      51  51  99 CALM      30.12R
SHAWANO        FAIR      56  53  91 CALM      30.12R
OCONTO         NOT AVBL
STURGEON BAY   FAIR      61  56  83 NW7       30.11R
GREEN BAY      FAIR      57  57 100 W5        30.12R
MANITOWOC      FAIR      59  55  87 W7        30.13R
APPLETON       PTCLDY    55  55 100 W7        30.11R
CLINTONVILLE   FAIR      54  52  94 CALM      30.12R
OSHKOSH        FAIR      59  54  83 W5        30.13R
$$

WIZ032>034-041-042-053>061-261200-
SOUTHWEST WISCONSIN

CITY           SKY/WX    TMP DP  RH WIND       PRES   REMARKS
LA CROSSE      FAIR      60  59  96 SE3       30.15R
SPARTA         FAIR      49  49 100 CALM      30.16R
VIROQUA        FAIR      55  55 100 CALM      30.17S
BOSCOBEL       FOG       60  59  96 SW3       30.16R VSB 1/4
PRAIRIE DU CHI FAIR      58  56  94 CALM      30.16R
PLATTEVILLE    FAIR      58  58 100 CALM      30.17R
$$

WIZ056-057-062-063-064-067-068-261200-
SOUTH CENTRAL WISCONSIN

CITY           SKY/WX    TMP DP  RH WIND       PRES   REMARKS
REEDSBURG      NOT AVBL
BARABOO/DELLS  FAIR      56  55  94 S3        30.15R
LONE ROCK      FOG       59  58  96 CALM      30.16R VSB 1/4
MINERAL POINT  FAIR      59  59 100 CALM      30.17R
MADISON        MOCLDY    58  57  97 CALM      30.15R
MIDDLETON      FAIR      56  56 100 CALM      30.16S
WATERTOWN      FAIR      56  56 100 CALM      30.15R
MONROE         FAIR      61  57  88 N5        30.17R
JANESVILLE       N/A     59  59 100 CALM      30.15R FOG
$$

WIZ051-052-058>065-066-070>072-261200-
SOUTHEAST WISCONSIN

CITY           SKY/WX    TMP DP  RH WIND       PRES   REMARKS
MILWAUKEE      FAIR      66  58  75 NW5       30.14R
WAUKESHA       CLEAR     59  57  94 NW5       30.16R
MILWAUKEE/TIMM FAIR      59  54  82 CALM      30.15R
RACINE         FAIR      63  60  90 NW5       30.15R
BURLINGTON     FAIR      56  56  99 CALM      30.15R FOG
KENOSHA        FAIR      62  60  93 NW3       30.14R
FOND DU LAC    FAIR      59  55  87 W5        30.14R
SHEBOYGAN      FAIR      54  53  97 CALM      30.14R FOG
WEST BEND      FAIR      57  55  94 CALM      30.15R
JUNEAU         FAIR      58  56  93 CALM      30.16R
$$

LSZ147-162-261200-
LAKE SUPERIOR

STATION/POSITION TIME  TEMP    WIND        PRES    WAVE
                       AIR SEA DIR/SP/G            HT/PER
                 (UTC) (F)     (DEG/KT/KT) (MB)    (FT/S)
W MID LAKE BUOY  1050   63 65  310/ 12/ 14 1017.2R   2/ 4
DEVILS ISLAND    1100   61     300/ 13/ 14 1019.0R
PORT WING        1000   63     300/ 10/ 14 1019.0R
SAXON HARBOR     1040   59     210/  7/ 10 1018.6R
$$

LMZ867-665-643>646-261200-
LAKE MICHIGAN

STATION/POSITION TIME  TEMP    WIND        PRES    WAVE
                       AIR SEA DIR/SP/G            HT/PER
                 (UTC) (F)     (DEG/KT/KT) (MB)    (FT/S)
CHAMBERS ISLAND  1000   61     240/  5/  8 1018.3R
N MID LAKE BUOY  1050   65 69  280/ 12/ 16 1017.6R   1/ 3
NORTHPORT PIER   1000   64     290/  7/ 12 1017.9S
SISTER BAY       1037   64     330/ 14/ 15   N/A
KEWAUNEE LAKESHO 1000   60     290/  1/  2 1018.4S
SHEBOYGAN LAKESH 1100   63     270/  5/  6 1019.8R
PORT WASHINGTON  1000   64     290/  4/  5 1020.7R
ATWATER BUOY     1100   58 49  300/  6/  6   N/A
MILWAUKEE LAKESH 1010   66     310/  6/  8   N/A
S MID LAKE BUOY  1050   71 74  350/ 12/ 14 1019.5R   2/ 4
KENOSHA   LAKESH 1100   65     320/  6/  9 1020.3R
$$

TC  - TEMPERATURE IN CELSIUS
VSB - VISIBILITY IN STATUTE MILES
WCI - WIND CHILL INDEX
HX  - HEAT INDEX





USA.gov is the U.S. government's official web portal to all federal, state and local government web resources and services.